Weather in Priekule

Latvia     56°26′45″N   21°35′53″E
temp.,
°C
wind,
m/s
gust,
m/s
humid.,
%
clouds,
%
prec.,
mm/h
press.,
hPa
HPBL,
m
10 may, mon
mon1000:00+8sse514886 0.0 1014343
03:00+8sse5149298 0.0 1015314
06:00+8sse4129320 0.0 1015265
09:00+13sse613785 0.0 1015446
12:00+19s71362100 0.0 10151109
15:00+21s7115861 0.0 10151250
18:00+21sse71264100 0.0 1014989
21:00+17s6147469 0.0 1016782
11 may, tue
tue1100:00+16sse71676100 0.0 1015594
03:00+14sse6158178 0.0 1016482
06:00+13se5148492 0.0 1016427
09:00+16sse613744 0.0 1017559
12:00+20sse711590 0.0 1017909
15:00+22sse710530 0.0 10161211
18:00+21se711615 0.0 10161072
21:00+17se7146835 0.0 1016732
12 may, wed
wed1200:00+14se6156719 0.0 1017581
03:00+12se615718 0.0 1016447
06:00+11se6157712 0.0 1016402
09:00+16se6157160 0.0 1016668
12:00+21se7125939 0.0 10151162
15:00+22se7105625 0.0 10151729
18:00+20se6866100 0.0 10141275
21:00+15se410695 0.0 1014305
13 may, thu
thu1300:00+10ese38810 0.0 1014138
03:00+9e22870 0.0 101233
06:00+9nne23875 0.0 101058
09:00+14ene5107352 0.1 1007690
12:00+13e8106483 0.0 10071293
15:00+12ne61067100 0.0 10061465
18:00+10ene51083100 0.1 10041298
21:00+8ene5991100 0.3 1003670
14 may, fri
fri1400:00+8ese5995100 0.5 1002634
03:00+8se4995100 1.4 1002515
06:00+8se3696100 0.1 1001275
09:00+11s468664 0.1 1002689
12:00+13s476990 0.2 10031269
15:00+15sw575711 0.2 10041399
18:00+13sw456427 0.0 1005915
21:00+8w249063 0.0 1006100